Content
SEND FEEDBACK

Daily
Averages
Monthly
Summary
Spain

SANTA CRUZ DE TENERIFE, SPAIN


Home > Europe > Spain
Elevation: 151 feet     Latitude: 28 27N     Longitude: 016 15W

WEATHER
 
SELECT A DAY
Number of Records: 207,595;   Date Range: 7/1/96 - 9/22/14
 
SHARE

PRINT THIS DATA

[ ← Previous Day ]
WEATHER ALMANAC - FEBRUARY 17, 2013
[ Next Day → ]
[ °C ]   °F
Weather ElementAverageHighLow
Temperature62.7 °F68 °F (11:30 am)51.8 °F (7:30 am)
Dewpoint47.6 °F55.4 °F (5:30 pm)35.6 °F (10:00 am)
Humidity60.5 %94 % (8:00 pm)34 % (10:00 am)
Barometer30.11 in30.15 in (10:30 am)30.06 in (5:30 pm)
Wind Speed4.5 mph9.2 mph (1:00 pm)
Weather ElementAverage
Visibility5.9 mi
Wind DirectionESE (105.5 °)

Weather ElementTotal
Precipitation---
Heating Degree Days5.1 (Base 65)
Growing Degree Days9.9 (Base 50)
Averaged from 31 records on February 17, 2013
WEATHER CONDITIONS BREAKOUT
WIND DIRECTION BREAKOUT
WEATHER BY HOUR - FEBRUARY 17, 2013
[ °C ]   °F
Local TimeTemperatureDewpointHumidityBarometerVisibilityWind DirectionWind SpeedGust SpeedPrecipitationEventsConditions
6:30 AM57.2 °F37.4 °F48 %30.12 inWest (280°)6.9 mphClear
7:30 AM51.8 °F37.4 °F58 %30.12 inWest (280°)8.1 mphClear
8:00 AM59.0 °F39.2 °F48 %30.12 inWest (260°)5.8 mphClear
8:30 AM53.6 °F41.0 °F62 %30.12 inVariable1.2 mphClear
9:00 AM62.6 °F39.2 °F42 %30.12 inSSE (160°)3.5 mphClear
9:30 AM64.4 °F37.4 °F37 %30.12 inSSE (160°)6.9 mphClear
10:00 AM64.4 °F35.6 °F34 %30.12 inSSE (160°)8.1 mphClear
10:30 AM66.2 °F39.2 °F37 %30.15 inSE (130°)8.1 mphClear
11:00 AM66.2 °F41.0 °F40 %30.15 inESE (120°)4.6 mphClear
11:30 AM68.0 °F39.2 °F35 %30.15 inSE (130°)5.8 mphClear
12:00 PM68.0 °F46.4 °F46 %30.15 inESE (120°)8.1 mphClear
12:30 PM68.0 °F50.0 °F52 %30.15 inESE (120°)6.9 mphClear
1:00 PM68.0 °F50.0 °F52 %30.12 inESE (110°)9.2 mphClear
1:30 PM68.0 °F48.2 °F49 %30.12 inSE (130°)5.8 mphClear
2:00 PM68.0 °F46.4 °F46 %30.12 inESE (120°)5.8 mphClear
2:30 PM68.0 °F50.0 °F52 %30.12 inESE (120°)4.6 mphClear
3:00 PM68.0 °F48.2 °F49 %30.09 inSE (130°)4.6 mphClear
3:30 PM68.0 °F48.2 °F49 %30.09 inVariable2.3 mphClear
4:00 PM68.0 °F50.0 °F52 %30.09 inVariable2.3 mphClear
4:30 PM66.2 °F51.8 °F60 %30.09 inESE (120°)6.9 mphClear
5:00 PM66.2 °F53.6 °F64 %30.09 inWNW (300°)3.5 mphClear
5:30 PM64.4 °F55.4 °F73 %30.06 inVariable2.3 mphClear
6:00 PM60.8 °F55.4 °F82 %30.06 in6.2 miSE (130°)4.6 mphFog
6:30 PM60.8 °F55.4 °F82 %30.06 in6.2 miCalmFog
7:00 PM59.0 °F55.4 °F88 %30.06 in5.6 miVariable2.3 mphPartly Cloudy
7:30 PM59.0 °F55.4 °F88 %30.06 in5.6 miSouth (190°)3.5 mphPartly Cloudy
8:00 PM57.2 °F55.4 °F94 %30.09 in5.6 miCalmFog
8:30 PM57.2 °F55.4 °F94 %30.09 in5.6 miVariable2.3 mphFog
9:00 PM57.2 °F55.4 °F94 %30.09 in6.2 miCalmPartly Cloudy
9:30 PM55.4 °F51.8 °F88 %30.09 in6.2 miVariable2.3 mphPartly Cloudy
10:00 PM55.4 °F50.0 °F82 %30.09 inVariable2.3 mphClear
Hourly data recorded from GCXO, located miles away from Santa Cruz de Tenerife, Spain







STORIES FROM OUR PARTNERS